Time,TemperatureF,DewpointF,PressureIn,WindDirection,WindDirectionDegrees,WindSpeedMPH,WindSpeedGustMPH,Humidity,HourlyPrecipIn,Conditions,Clouds,dailyrainin,SolarRadiationWatts/m^2,SoftwareType,DateUTC
2013-06-15 00:02:00,34.0,33.0,-100.00,South,189,0.0,2.0,97,0.00,,,0.20,0.000000,,2013-06-15 06:02:00,
2013-06-15 00:12:00,34.0,33.0,-100.00,South,189,0.0,2.0,97,0.00,,,0.20,0.000000,,2013-06-15 06:12:00,
2013-06-15 00:24:00,34.0,33.0,-100.00,South,189,0.0,2.0,97,0.00,,,0.20,0.000000,,2013-06-15 06:24:00,
2013-06-15 00:33:00,34.0,33.0,-100.00,South,189,0.0,2.0,97,0.00,,,0.20,0.000000,,2013-06-15 06:33:00,
2013-06-15 01:01:00,32.0,31.0,-100.00,East,87,0.0,2.0,97,0.00,,,0.20,0.000000,,2013-06-15 07:01:00,
2013-06-15 01:11:00,32.0,31.0,-100.00,East,87,0.0,2.0,97,0.00,,,0.20,0.000000,,2013-06-15 07:11:00,
2013-06-15 01:23:00,32.0,31.0,-100.00,East,87,0.0,2.0,97,0.00,,,0.20,0.000000,,2013-06-15 07:23:00,
2013-06-15 01:33:00,32.0,31.0,-100.00,East,87,0.0,2.0,97,0.00,,,0.20,0.000000,,2013-06-15 07:33:00,
2013-06-15 02:02:00,32.0,32.0,-100.00,East,89,0.0,2.0,99,0.00,,,0.20,0.000000,,2013-06-15 08:02:00,
2013-06-15 02:11:00,32.0,32.0,-100.00,East,89,0.0,2.0,99,0.00,,,0.20,0.000000,,2013-06-15 08:11:00,
2013-06-15 02:22:00,32.0,32.0,-100.00,East,89,0.0,2.0,99,0.00,,,0.20,0.000000,,2013-06-15 08:22:00,
2013-06-15 02:33:00,32.0,32.0,-100.00,East,89,0.0,2.0,99,0.00,,,0.20,0.000000,,2013-06-15 08:33:00,
2013-06-15 03:02:00,33.0,33.0,-100.00,East,96,0.0,0.0,99,0.00,,,0.20,0.000000,,2013-06-15 09:02:00,
2013-06-15 03:12:00,33.0,33.0,-100.00,East,96,0.0,0.0,99,0.00,,,0.20,0.000000,,2013-06-15 09:12:00,
2013-06-15 03:22:00,33.0,33.0,-100.00,East,96,0.0,0.0,99,0.00,,,0.20,0.000000,,2013-06-15 09:22:00,
2013-06-15 03:33:00,33.0,33.0,-100.00,East,96,0.0,0.0,99,0.00,,,0.20,0.000000,,2013-06-15 09:33:00,
2013-06-15 04:02:00,33.0,33.0,-100.00,SE,132,0.0,2.0,99,0.00,,,0.20,0.000000,,2013-06-15 10:02:00,
2013-06-15 04:11:00,33.0,33.0,-100.00,SE,132,0.0,2.0,99,0.00,,,0.20,0.000000,,2013-06-15 10:11:00,
2013-06-15 04:23:00,33.0,33.0,-100.00,SE,132,0.0,2.0,99,0.00,,,0.20,0.000000,,2013-06-15 10:23:00,
2013-06-15 04:33:00,33.0,33.0,-100.00,SE,132,0.0,2.0,99,0.00,,,0.20,0.000000,,2013-06-15 10:33:00,
2013-06-15 05:01:00,33.0,33.0,-100.00,ESE,117,0.0,3.0,99,0.00,,,0.20,0.000000,,2013-06-15 11:01:00,
2013-06-15 05:11:00,33.0,33.0,-100.00,ESE,117,0.0,3.0,99,0.00,,,0.20,0.000000,,2013-06-15 11:11:00,
2013-06-15 05:22:00,33.0,33.0,-100.00,ESE,117,0.0,3.0,99,0.00,,,0.20,0.000000,,2013-06-15 11:22:00,
2013-06-15 05:33:00,33.0,33.0,-100.00,ESE,117,0.0,3.0,99,0.00,,,0.20,0.000000,,2013-06-15 11:33:00,
2013-06-15 06:01:00,32.0,32.0,-100.00,NNE,21,0.0,2.0,99,0.00,,,0.20,0.000000,,2013-06-15 12:01:00,
2013-06-15 06:11:00,32.0,32.0,-100.00,NNE,21,0.0,2.0,99,0.00,,,0.20,0.000000,,2013-06-15 12:11:00,
2013-06-15 06:22:00,32.0,32.0,-100.00,NNE,21,0.0,2.0,99,0.00,,,0.20,0.000000,,2013-06-15 12:22:00,
2013-06-15 06:33:00,32.0,32.0,-100.00,NNE,21,0.0,2.0,99,0.00,,,0.20,0.000000,,2013-06-15 12:33:00,
2013-06-15 07:02:00,32.0,32.0,-100.00,ENE,65,2.0,4.0,99,0.00,,,0.20,16.000000,,2013-06-15 13:02:00,
2013-06-15 07:11:00,32.0,32.0,-100.00,ENE,65,2.0,4.0,99,0.00,,,0.20,16.000000,,2013-06-15 13:11:00,
2013-06-15 07:22:00,32.0,32.0,-100.00,ENE,65,2.0,4.0,99,0.00,,,0.20,16.000000,,2013-06-15 13:22:00,
2013-06-15 07:32:00,32.0,32.0,-100.00,ENE,65,2.0,4.0,99,0.00,,,0.20,16.000000,,2013-06-15 13:32:00,
2013-06-15 08:01:00,34.0,34.0,-100.00,NE,37,1.0,3.0,99,0.00,,,0.20,53.000000,,2013-06-15 14:01:00,
2013-06-15 08:12:00,34.0,34.0,-100.00,NE,37,1.0,3.0,99,0.00,,,0.20,53.000000,,2013-06-15 14:12:00,
2013-06-15 08:22:00,34.0,34.0,-100.00,NE,37,1.0,3.0,99,0.00,,,0.20,53.000000,,2013-06-15 14:22:00,
2013-06-15 08:34:00,34.0,34.0,-100.00,NE,37,1.0,3.0,99,0.00,,,0.20,53.000000,,2013-06-15 14:34:00,
2013-06-15 09:01:00,34.0,34.0,-100.00,North,6,3.0,6.0,99,0.00,,,0.20,120.000000,,2013-06-15 15:01:00,
2013-06-15 09:11:00,34.0,34.0,-100.00,North,6,3.0,6.0,99,0.00,,,0.20,120.000000,,2013-06-15 15:11:00,
2013-06-15 09:22:00,34.0,34.0,-100.00,North,6,3.0,6.0,99,0.00,,,0.20,120.000000,,2013-06-15 15:22:00,
2013-06-15 09:33:00,34.0,34.0,-100.00,North,6,3.0,6.0,99,0.00,,,0.20,120.000000,,2013-06-15 15:33:00,
2013-06-15 10:01:00,37.0,36.0,-100.00,North,7,2.0,5.0,95,0.00,,,0.20,191.000000,,2013-06-15 16:01:00,
2013-06-15 10:11:00,37.0,36.0,-100.00,North,7,2.0,5.0,95,0.00,,,0.20,191.000000,,2013-06-15 16:11:00,
2013-06-15 10:22:00,37.0,36.0,-100.00,North,7,2.0,5.0,95,0.00,,,0.20,191.000000,,2013-06-15 16:22:00,
2013-06-15 11:02:00,46.0,39.0,-100.00,SE,132,2.0,6.0,76,-99.99,,,0.20,668.000000,,2013-06-15 17:02:00,
2013-06-15 11:11:00,46.0,39.0,-100.00,SE,132,2.0,6.0,76,-99.99,,,0.20,668.000000,,2013-06-15 17:11:00,
2013-06-15 11:21:00,46.0,39.0,-100.00,SE,132,2.0,6.0,76,-99.99,,,0.20,668.000000,,2013-06-15 17:21:00,
2013-06-15 11:32:00,46.0,39.0,-100.00,SE,132,2.0,6.0,76,-99.99,,,0.20,668.000000,,2013-06-15 17:32:00,
2013-06-15 12:01:00,54.0,38.0,-100.00,NNW,327,2.0,5.0,55,0.00,,,0.20,944.000000,,2013-06-15 18:01:00,
2013-06-15 12:11:00,54.0,38.0,-100.00,NNW,327,2.0,5.0,55,0.00,,,0.20,944.000000,,2013-06-15 18:11:00,
2013-06-15 12:22:00,54.0,38.0,-100.00,NNW,327,2.0,5.0,55,0.00,,,0.20,944.000000,,2013-06-15 18:22:00,
2013-06-15 12:32:00,54.0,38.0,-100.00,NNW,327,2.0,5.0,55,0.00,,,0.20,944.000000,,2013-06-15 18:32:00,
2013-06-15 13:01:00,62.0,35.0,-100.00,SSE,155,3.0,7.0,37,0.00,,,0.20,1052.000000,,2013-06-15 19:01:00,
2013-06-15 14:33:00,68.0,31.0,-100.00,SSW,208,4.0,8.0,25,0.00,,,0.19,1111.000000,,2013-06-15 20:33:00,
2013-06-15 15:01:00,68.0,20.0,-100.00,SW,234,6.0,13.0,16,0.00,,,0.19,1106.000000,,2013-06-15 21:01:00,
2013-06-15 15:11:00,68.0,20.0,-100.00,SW,234,6.0,13.0,16,0.00,,,0.19,1106.000000,,2013-06-15 21:11:00,
2013-06-15 15:22:00,68.0,20.0,-100.00,SW,234,6.0,13.0,16,0.00,,,0.19,1106.000000,,2013-06-15 21:22:00,
2013-06-15 15:33:00,68.0,20.0,-100.00,SW,234,6.0,13.0,16,0.00,,,0.19,1106.000000,,2013-06-15 21:33:00,
2013-06-15 16:01:00,70.0,23.0,-100.00,WSW,242,6.0,13.0,17,0.00,,,0.15,1041.000000,,2013-06-15 22:01:00,
2013-06-15 16:11:00,70.0,23.0,-100.00,WSW,242,6.0,13.0,17,0.00,,,0.15,1041.000000,,2013-06-15 22:11:00,
2013-06-15 16:22:00,70.0,23.0,-100.00,WSW,242,6.0,13.0,17,0.00,,,0.15,1041.000000,,2013-06-15 22:22:00,
2013-06-15 16:32:00,70.0,23.0,-100.00,WSW,242,6.0,13.0,17,0.00,,,0.15,1041.000000,,2013-06-15 22:32:00,
2013-06-15 17:02:00,71.0,24.0,-100.00,SW,214,5.0,17.0,17,0.00,,,0.14,916.000000,,2013-06-15 23:02:00,
2013-06-15 17:11:00,71.0,24.0,-100.00,SW,214,5.0,17.0,17,0.00,,,0.14,916.000000,,2013-06-15 23:11:00,
2013-06-15 17:22:00,71.0,24.0,-100.00,SW,214,5.0,17.0,17,0.00,,,0.14,916.000000,,2013-06-15 23:22:00,
2013-06-15 17:33:00,71.0,24.0,-100.00,SW,214,5.0,17.0,17,0.00,,,0.14,916.000000,,2013-06-15 23:33:00,
2013-06-15 18:01:00,70.0,25.0,-100.00,SSW,206,5.0,13.0,18,0.00,,,0.03,558.000000,,2013-06-16 00:01:00,
2013-06-15 18:11:00,70.0,25.0,-100.00,SSW,206,5.0,13.0,18,0.00,,,0.03,558.000000,,2013-06-16 00:11:00,
2013-06-15 18:22:00,70.0,25.0,-100.00,SSW,206,5.0,13.0,18,0.00,,,0.03,558.000000,,2013-06-16 00:22:00,
2013-06-15 18:33:00,70.0,25.0,-100.00,SSW,206,5.0,13.0,18,0.00,,,0.03,558.000000,,2013-06-16 00:33:00,
2013-06-15 19:01:00,66.0,19.0,-100.00,SW,219,5.0,14.0,16,0.00,,,0.01,63.000000,,2013-06-16 01:01:00,
2013-06-15 19:11:00,66.0,19.0,-100.00,SW,219,5.0,14.0,16,0.00,,,0.01,63.000000,,2013-06-16 01:11:00,
2013-06-15 19:22:00,66.0,19.0,-100.00,SW,219,5.0,14.0,16,0.00,,,0.01,63.000000,,2013-06-16 01:22:00,
2013-06-15 19:33:00,66.0,19.0,-100.00,SW,219,5.0,14.0,16,0.00,,,0.01,63.000000,,2013-06-16 01:33:00,
2013-06-15 19:53:00,64.0,18.0,-100.00,SW,224,4.0,11.0,17,0.00,,,0.00,29.000000,,2013-06-16 01:53:00,
2013-06-15 20:01:00,64.0,18.0,-100.00,SW,224,4.0,11.0,17,0.00,,,0.00,29.000000,,2013-06-16 02:01:00,
2013-06-15 20:12:00,64.0,18.0,-100.00,SW,224,4.0,11.0,17,0.00,,,0.00,29.000000,,2013-06-16 02:12:00,
2013-06-15 20:22:00,64.0,18.0,-100.00,SW,224,4.0,11.0,17,0.00,,,0.00,29.000000,,2013-06-16 02:22:00,
2013-06-15 20:33:00,64.0,18.0,-100.00,SW,224,4.0,11.0,17,0.00,,,0.00,29.000000,,2013-06-16 02:33:00,
2013-06-15 21:02:00,59.0,24.0,-100.00,SSW,205,2.0,8.0,26,0.00,,,0.00,17.000000,,2013-06-16 03:02:00,
2013-06-15 21:11:00,59.0,24.0,-100.00,SSW,205,2.0,8.0,26,0.00,,,0.00,17.000000,,2013-06-16 03:11:00,
2013-06-15 21:22:00,59.0,24.0,-100.00,SSW,205,2.0,8.0,26,0.00,,,0.00,17.000000,,2013-06-16 03:22:00,
2013-06-15 21:33:00,59.0,24.0,-100.00,SSW,205,2.0,8.0,26,0.00,,,0.00,17.000000,,2013-06-16 03:33:00,
2013-06-15 22:01:00,50.0,32.0,-100.00,SSE,167,1.0,3.0,49,0.00,,,0.00,3.000000,,2013-06-16 04:01:00,
2013-06-15 22:12:00,50.0,32.0,-100.00,SSE,167,1.0,3.0,49,0.00,,,0.00,3.000000,,2013-06-16 04:12:00,
2013-06-15 22:23:00,50.0,32.0,-100.00,SSE,167,1.0,3.0,49,0.00,,,0.00,3.000000,,2013-06-16 04:23:00,
2013-06-15 22:33:00,50.0,32.0,-100.00,SSE,167,1.0,3.0,49,0.00,,,0.00,3.000000,,2013-06-16 04:33:00,
2013-06-15 23:01:00,46.0,30.0,-100.00,North,3,1.0,4.0,54,0.00,,,0.00,0.000000,,2013-06-16 05:01:00,
2013-06-15 23:11:00,46.0,30.0,-100.00,North,3,1.0,4.0,54,0.00,,,0.00,0.000000,,2013-06-16 05:11:00,
2013-06-15 23:22:00,46.0,30.0,-100.00,North,3,1.0,4.0,54,0.00,,,0.00,0.000000,,2013-06-16 05:22:00,
2013-06-15 23:33:00,46.0,30.0,-100.00,North,3,1.0,4.0,54,0.00,,,0.00,0.000000,,2013-06-16 05:33:00,